Simultaneous Nadir Overpasses (SNOs) Predictions

Prediction of SNOs between LANDSAT-8 and NPP Satellite Orbit:

Table of predicted SNOs for the next 14.0 days since TLE Epoch: 1/7/2023
Index Date (LANDSAT-8) Time (LANDSAT-8) Lat,Lon (LANDSAT-8) SZA (LANDSAT-8 ) Date (NPP) Time (NPP) Lat,Lon (NPP) SZA (NPP ) Distance(km) Time Diff (sec)
1 01/07/2023 06:09:19 70.23, 84.35 92.58 01/07/2023 06:08:25 70.21, 84.30 92.57 2.58 54
2 01/07/2023 06:58:49 -70.11,-108.18 87.54 01/07/2023 06:59:07 -70.12,-108.25 87.53 2.82 18
3 01/07/2023 07:48:30 69.24, 58.27 91.62 01/07/2023 07:49:37 69.26, 60.34 91.58 81.52 67
4 01/09/2023 22:25:47 70.17,-159.85 92.17 01/09/2023 22:25:21 70.17,-159.87 92.18 0.84 26
5 01/09/2023 23:15:17 -70.06, 7.63 87.95 01/09/2023 23:16:03 -70.08, 7.59 87.93 2.79 46
6 01/12/2023 13:52:48 -70.25, 148.51 88.16 01/12/2023 13:51:35 -70.30, 148.38 88.09 7.51 73
7 01/12/2023 14:42:15 70.14, -44.01 91.74 01/12/2023 14:42:18 70.14, -44.05 91.74 1.80 3
8 01/12/2023 15:31:46 -69.98, 123.40 88.43 01/12/2023 15:32:59 -69.99, 123.49 88.43 3.73 73
9 01/15/2023 06:09:16 -70.20, -95.68 88.66 01/15/2023 06:08:31 -70.22, -95.72 88.63 2.61 45
10 01/15/2023 06:58:43 70.09, 71.81 91.23 01/15/2023 06:59:15 70.11, 71.76 91.25 3.06 32
11 01/17/2023 21:36:05 70.73,-146.65 91.35 01/17/2023 21:34:55 70.77,-148.16 91.46 55.50 70
12 01/17/2023 22:25:44 -70.13, 20.11 89.23 01/17/2023 22:25:27 -70.15, 20.16 89.21 2.63 17
13 01/17/2023 23:15:11 70.02,-172.41 90.66 01/17/2023 23:16:11 70.04,-172.36 90.67 3.23 60
14 01/20/2023 13:52:39 70.25, -31.47 90.34 01/20/2023 13:51:41 70.24, -31.52 90.34 2.27 58
15 01/20/2023 14:42:09 -70.15, 136.02 89.77 01/20/2023 14:42:23 -70.13, 135.96 89.78 2.80 14
16 01/20/2023 15:31:47 69.42, -57.34 89.54 01/20/2023 15:32:55 69.39, -55.63 89.44 66.83 68



Historial Predications of SNOs between LANDSAT-8 and NPP
